Year,Month,Day,Hour,Minute,Value (Times are PST for temperature in C)
2011,08,15,00,00,13.30
2011,08,15,00,01,13.20
2011,08,15,00,02,13.10
2011,08,15,00,03,13.00
2011,08,15,00,04,12.90
2011,08,15,00,05,12.80
2011,08,15,00,06,12.70
2011,08,15,00,07,12.70
2011,08,15,00,08,12.60
2011,08,15,00,09,12.50
2011,08,15,00,10,12.50
2011,08,15,00,11,12.40
2011,08,15,00,12,12.40
2011,08,15,00,13,12.30
2011,08,15,00,14,12.30
2011,08,15,00,15,12.20
2011,08,15,00,16,12.10
2011,08,15,00,17,12.10
2011,08,15,00,18,12.00
2011,08,15,00,19,12.00
2011,08,15,00,20,11.90
2011,08,15,00,21,11.90
2011,08,15,00,22,11.90
2011,08,15,00,23,11.80
2011,08,15,00,24,11.80
2011,08,15,00,25,11.80
2011,08,15,00,26,11.70
2011,08,15,00,27,11.70
2011,08,15,00,28,11.70
2011,08,15,00,29,11.70
2011,08,15,00,30,11.70
2011,08,15,00,31,11.60
2011,08,15,00,32,11.60
2011,08,15,00,33,11.60
2011,08,15,00,34,11.60
2011,08,15,00,35,11.60
2011,08,15,00,36,11.60
2011,08,15,00,37,11.60
2011,08,15,00,38,11.60
2011,08,15,00,39,11.60
2011,08,15,00,40,11.70
2011,08,15,00,41,11.80
2011,08,15,00,42,11.90
2011,08,15,00,43,11.90
2011,08,15,00,44,12.00
2011,08,15,00,45,12.10
2011,08,15,00,46,12.20
2011,08,15,00,47,12.30
2011,08,15,00,48,12.40
2011,08,15,00,49,12.50
2011,08,15,00,50,12.70
2011,08,15,00,51,12.80
2011,08,15,00,52,12.90
2011,08,15,00,53,13.00
2011,08,15,00,54,13.10
2011,08,15,00,55,13.20
2011,08,15,00,56,13.30
2011,08,15,00,57,13.30
2011,08,15,00,58,13.30
2011,08,15,00,59,13.40
2011,08,15,01,00,13.40
2011,08,15,01,01,13.40
2011,08,15,01,02,13.40
2011,08,15,01,03,13.40
2011,08,15,01,04,13.40
2011,08,15,01,05,13.30
2011,08,15,01,06,13.30
2011,08,15,01,07,13.30
2011,08,15,01,08,13.30
2011,08,15,01,09,13.30
2011,08,15,01,10,13.30
2011,08,15,01,11,13.30
2011,08,15,01,12,13.30
2011,08,15,01,13,13.20
2011,08,15,01,14,13.20
2011,08,15,01,15,13.20
2011,08,15,01,16,13.10
2011,08,15,01,17,13.00
2011,08,15,01,18,12.90
2011,08,15,01,19,12.80
2011,08,15,01,20,12.70
2011,08,15,01,21,12.50
2011,08,15,01,22,12.40
2011,08,15,01,23,12.20
2011,08,15,01,24,12.10
2011,08,15,01,25,12.10
2011,08,15,01,26,12.00
2011,08,15,01,27,11.90
2011,08,15,01,28,11.80
2011,08,15,01,29,11.80
2011,08,15,01,30,11.70
2011,08,15,01,31,11.80
2011,08,15,01,32,11.80
2011,08,15,01,33,11.80
2011,08,15,01,34,11.80
2011,08,15,01,35,11.70
2011,08,15,01,36,11.80
2011,08,15,01,37,11.80
2011,08,15,01,38,11.80
2011,08,15,01,39,11.80
2011,08,15,01,40,11.90
2011,08,15,01,41,11.90
2011,08,15,01,42,12.00
2011,08,15,01,43,12.10
2011,08,15,01,44,12.20
2011,08,15,01,45,12.30
2011,08,15,01,46,12.50
2011,08,15,01,47,12.60
2011,08,15,01,48,12.70
2011,08,15,01,49,12.80
2011,08,15,01,50,12.90
2011,08,15,01,51,13.00
2011,08,15,01,52,13.10
2011,08,15,01,53,13.20
2011,08,15,01,54,13.30
2011,08,15,01,55,13.40
2011,08,15,01,56,13.40
2011,08,15,01,57,13.50
2011,08,15,01,58,13.50
2011,08,15,01,59,13.60
2011,08,15,02,00,13.60
2011,08,15,02,01,13.70
2011,08,15,02,02,13.70
2011,08,15,02,03,13.80
2011,08,15,02,04,13.90
2011,08,15,02,05,13.90
2011,08,15,02,06,14.00
2011,08,15,02,07,14.00
2011,08,15,02,08,14.00
2011,08,15,02,09,14.00
2011,08,15,02,10,14.10
2011,08,15,02,11,14.10
2011,08,15,02,12,14.10
2011,08,15,02,13,14.10
2011,08,15,02,14,14.10
2011,08,15,02,15,14.10
2011,08,15,02,16,14.10
2011,08,15,02,17,14.20
2011,08,15,02,18,14.30
2011,08,15,02,19,14.40
2011,08,15,02,20,14.40
2011,08,15,02,21,14.50
2011,08,15,02,22,14.60
2011,08,15,02,23,14.60
2011,08,15,02,24,14.70
2011,08,15,02,25,14.80
2011,08,15,02,26,14.80
2011,08,15,02,27,14.90
2011,08,15,02,28,15.00
2011,08,15,02,29,15.00
2011,08,15,02,30,15.00
2011,08,15,02,31,15.00
2011,08,15,02,32,15.00
2011,08,15,02,33,15.00
2011,08,15,02,34,15.00
2011,08,15,02,35,15.00
2011,08,15,02,36,15.00
2011,08,15,02,37,15.00
2011,08,15,02,38,15.00
2011,08,15,02,39,15.00
2011,08,15,02,40,15.00
2011,08,15,02,41,15.00
2011,08,15,02,42,15.00
2011,08,15,02,43,15.00
2011,08,15,02,44,15.00
2011,08,15,02,45,15.00
2011,08,15,02,46,15.00
2011,08,15,02,47,15.00
2011,08,15,02,48,15.00
2011,08,15,02,49,15.00
2011,08,15,02,50,15.00
2011,08,15,02,51,15.00
2011,08,15,02,52,15.00
2011,08,15,02,53,15.00
2011,08,15,02,54,15.00
2011,08,15,02,55,15.00
2011,08,15,02,56,15.00
2011,08,15,02,57,15.00
2011,08,15,02,58,15.00
2011,08,15,02,59,15.00
2011,08,15,03,00,15.00
2011,08,15,03,01,15.00
2011,08,15,03,02,15.00
2011,08,15,03,03,14.90
2011,08,15,03,04,14.90
2011,08,15,03,05,14.90
2011,08,15,03,06,14.90
2011,08,15,03,07,14.90
2011,08,15,03,08,14.80
2011,08,15,03,09,14.80
2011,08,15,03,10,14.80
2011,08,15,03,11,14.80
2011,08,15,03,12,14.80
2011,08,15,03,13,14.80
2011,08,15,03,14,14.80
2011,08,15,03,15,14.70
2011,08,15,03,16,14.70
2011,08,15,03,17,14.70
2011,08,15,03,18,14.70
2011,08,15,03,19,14.60
2011,08,15,03,20,14.60
2011,08,15,03,21,14.60
2011,08,15,03,22,14.60
2011,08,15,03,23,14.60
2011,08,15,03,24,14.60
2011,08,15,03,25,14.60
2011,08,15,03,26,14.50
2011,08,15,03,27,14.50
2011,08,15,03,28,14.50
2011,08,15,03,29,14.50
2011,08,15,03,30,14.50
2011,08,15,03,31,14.50
2011,08,15,03,32,14.50
2011,08,15,03,33,14.50
2011,08,15,03,34,14.50
2011,08,15,03,35,14.40
2011,08,15,03,36,14.40
2011,08,15,03,37,14.40
2011,08,15,03,38,14.40
2011,08,15,03,39,14.30
2011,08,15,03,40,14.30
2011,08,15,03,41,14.30
2011,08,15,03,42,14.20
2011,08,15,03,43,14.20
2011,08,15,03,44,14.20
2011,08,15,03,45,14.20
2011,08,15,03,46,14.10
2011,08,15,03,47,14.10
2011,08,15,03,48,14.10
2011,08,15,03,49,14.10
2011,08,15,03,50,14.00
2011,08,15,03,51,14.00
2011,08,15,03,52,14.00
2011,08,15,03,53,13.90
2011,08,15,03,54,13.90
2011,08,15,03,55,13.90
2011,08,15,03,56,13.90
2011,08,15,03,57,13.80
2011,08,15,03,58,13.80
2011,08,15,03,59,13.80
2011,08,15,04,00,13.70
2011,08,15,04,01,13.70
2011,08,15,04,02,13.70
2011,08,15,04,03,13.70
2011,08,15,04,04,13.70
2011,08,15,04,05,13.70
2011,08,15,04,06,13.70
2011,08,15,04,07,13.70
2011,08,15,04,08,13.60
2011,08,15,04,09,13.60
2011,08,15,04,10,13.60
2011,08,15,04,11,13.60
2011,08,15,04,12,13.60
2011,08,15,04,13,13.60
2011,08,15,04,14,13.60
2011,08,15,04,15,13.60
2011,08,15,04,16,13.60
2011,08,15,04,17,13.60
2011,08,15,04,18,13.50
2011,08,15,04,19,13.50
2011,08,15,04,20,13.50
2011,08,15,04,21,13.40
2011,08,15,04,22,13.30
2011,08,15,04,23,13.30
2011,08,15,04,24,13.30
2011,08,15,04,25,13.30
2011,08,15,04,26,13.30
2011,08,15,04,27,13.30
2011,08,15,04,28,13.30
2011,08,15,04,29,13.30
2011,08,15,04,30,13.30
2011,08,15,04,31,13.20
2011,08,15,04,32,13.10
2011,08,15,04,33,13.10
2011,08,15,04,34,13.00
2011,08,15,04,35,13.00
2011,08,15,04,36,13.00
2011,08,15,04,37,13.00
2011,08,15,04,38,13.00
2011,08,15,04,39,12.90
2011,08,15,04,40,12.90
2011,08,15,04,41,12.90
2011,08,15,04,42,12.80
2011,08,15,04,43,12.80
2011,08,15,04,44,12.80
2011,08,15,04,45,12.70
2011,08,15,04,46,12.70
2011,08,15,04,47,12.60
2011,08,15,04,48,12.50
2011,08,15,04,49,12.40
2011,08,15,04,50,12.30
2011,08,15,04,51,12.30
2011,08,15,04,52,12.30
2011,08,15,04,53,12.20
2011,08,15,04,54,12.20
2011,08,15,04,55,12.20
2011,08,15,04,56,12.20
2011,08,15,04,57,12.10
2011,08,15,04,58,12.10
2011,08,15,04,59,12.10
2011,08,15,05,00,12.10
2011,08,15,05,01,12.10
2011,08,15,05,02,12.00
2011,08,15,05,03,11.90
2011,08,15,05,04,11.90
2011,08,15,05,05,11.80
2011,08,15,05,06,11.80
2011,08,15,05,07,11.80
2011,08,15,05,08,11.80
2011,08,15,05,09,11.80
2011,08,15,05,10,11.80
2011,08,15,05,11,11.80
2011,08,15,05,12,11.70
2011,08,15,05,13,11.70
2011,08,15,05,14,11.60
2011,08,15,05,15,11.60
2011,08,15,05,16,11.60
2011,08,15,05,17,11.60
2011,08,15,05,18,11.60
2011,08,15,05,19,11.60
2011,08,15,05,20,11.50
2011,08,15,05,21,11.50
2011,08,15,05,22,11.50
2011,08,15,05,23,11.40
2011,08,15,05,24,11.40
2011,08,15,05,25,11.40
2011,08,15,05,26,11.30
2011,08,15,05,27,11.30
2011,08,15,05,28,11.30
2011,08,15,05,29,11.30
2011,08,15,05,30,11.30
2011,08,15,05,31,11.40
2011,08,15,05,32,11.50
2011,08,15,05,33,11.60
2011,08,15,05,34,11.60
2011,08,15,05,35,11.70
2011,08,15,05,36,11.70
2011,08,15,05,37,11.70
2011,08,15,05,38,11.70
2011,08,15,05,39,11.80
2011,08,15,05,40,11.80
2011,08,15,05,41,11.80
2011,08,15,05,42,11.80
2011,08,15,05,43,11.70
2011,08,15,05,44,11.80
2011,08,15,05,45,11.80
2011,08,15,05,46,11.80
2011,08,15,05,47,11.80
2011,08,15,05,48,11.80
2011,08,15,05,49,11.80
2011,08,15,05,50,11.80
2011,08,15,05,51,11.80
2011,08,15,05,52,11.80
2011,08,15,05,53,11.80
2011,08,15,05,54,11.80
2011,08,15,05,55,11.80
2011,08,15,05,56,11.80
2011,08,15,05,57,11.80
2011,08,15,05,58,11.80
2011,08,15,05,59,11.80
2011,08,15,06,00,11.80
2011,08,15,06,01,11.80
2011,08,15,06,02,11.70
2011,08,15,06,03,11.60
2011,08,15,06,04,11.60
2011,08,15,06,05,11.60
2011,08,15,06,06,11.60
2011,08,15,06,07,11.60
2011,08,15,06,08,11.50
2011,08,15,06,09,11.50
2011,08,15,06,10,11.60
2011,08,15,06,11,11.60
2011,08,15,06,12,11.50
2011,08,15,06,13,11.50
2011,08,15,06,14,11.50
2011,08,15,06,15,11.60
2011,08,15,06,16,11.60
2011,08,15,06,17,11.60
2011,08,15,06,18,11.50
2011,08,15,06,19,11.50
2011,08,15,06,20,11.40
2011,08,15,06,21,11.40
2011,08,15,06,22,11.30
2011,08,15,06,23,11.30
2011,08,15,06,24,11.20
2011,08,15,06,25,11.30
2011,08,15,06,26,11.30
2011,08,15,06,27,11.30
2011,08,15,06,28,11.30
2011,08,15,06,29,11.30
2011,08,15,06,30,11.30
2011,08,15,06,31,11.30
2011,08,15,06,32,11.30
2011,08,15,06,33,11.30
2011,08,15,06,34,11.30
2011,08,15,06,35,11.30
2011,08,15,06,36,11.40
2011,08,15,06,37,11.40
2011,08,15,06,38,11.40
2011,08,15,06,39,11.40
2011,08,15,06,40,11.40
2011,08,15,06,41,11.40
2011,08,15,06,42,11.40
2011,08,15,06,43,11.40
2011,08,15,06,44,11.40
2011,08,15,06,45,11.40
2011,08,15,06,46,11.40
2011,08,15,06,47,11.40
2011,08,15,06,48,11.50
2011,08,15,06,49,11.50
2011,08,15,06,50,11.60
2011,08,15,06,51,11.60
2011,08,15,06,52,11.60
2011,08,15,06,53,11.70
2011,08,15,06,54,11.70
2011,08,15,06,55,11.70
2011,08,15,06,56,11.80
2011,08,15,06,57,11.80
2011,08,15,06,58,11.80
2011,08,15,06,59,11.90
2011,08,15,07,00,11.90
2011,08,15,07,01,11.90
2011,08,15,07,02,12.00
2011,08,15,07,03,12.00
2011,08,15,07,04,12.10
2011,08,15,07,05,12.10
2011,08,15,07,06,12.20
2011,08,15,07,07,12.20
2011,08,15,07,08,12.20
2011,08,15,07,09,12.30
2011,08,15,07,10,12.30
2011,08,15,07,11,12.40
2011,08,15,07,12,12.50
2011,08,15,07,13,12.50
2011,08,15,07,14,12.50
2011,08,15,07,15,12.60
2011,08,15,07,16,12.60
2011,08,15,07,17,12.60
2011,08,15,07,18,12.60
2011,08,15,07,19,12.60
2011,08,15,07,20,12.70
2011,08,15,07,21,12.70
2011,08,15,07,22,12.70
2011,08,15,07,23,12.70
2011,08,15,07,24,12.80
2011,08,15,07,25,12.80
2011,08,15,07,26,12.80
2011,08,15,07,27,12.80
2011,08,15,07,28,12.80
2011,08,15,07,29,12.80
2011,08,15,07,30,12.80
2011,08,15,07,31,12.90
2011,08,15,07,32,12.90
2011,08,15,07,33,12.90
2011,08,15,07,34,12.90
2011,08,15,07,35,12.90
2011,08,15,07,36,12.90
2011,08,15,07,37,12.90
2011,08,15,07,38,13.00
2011,08,15,07,39,13.10
2011,08,15,07,40,13.10
2011,08,15,07,41,13.20
2011,08,15,07,42,13.20
2011,08,15,07,43,13.30
2011,08,15,07,44,13.40
2011,08,15,07,45,13.50
2011,08,15,07,46,13.60
2011,08,15,07,47,13.70
2011,08,15,07,48,13.80
2011,08,15,07,49,13.90
2011,08,15,07,50,13.90
2011,08,15,07,51,14.00
2011,08,15,07,52,14.10
2011,08,15,07,53,14.20
2011,08,15,07,54,14.20
2011,08,15,07,55,14.30
2011,08,15,07,56,14.30
2011,08,15,07,57,14.40
2011,08,15,07,58,14.40
2011,08,15,07,59,14.50
2011,08,15,08,00,14.60
2011,08,15,08,01,14.60
2011,08,15,08,02,14.70
2011,08,15,08,03,14.70
2011,08,15,08,04,14.80
2011,08,15,08,05,14.90
2011,08,15,08,06,14.90
2011,08,15,08,07,15.00
2011,08,15,08,08,15.00
2011,08,15,08,09,15.00
2011,08,15,08,10,15.00
2011,08,15,08,11,15.00
2011,08,15,08,12,15.10
2011,08,15,08,13,15.10
2011,08,15,08,14,15.20
2011,08,15,08,15,15.20
2011,08,15,08,16,15.20
2011,08,15,08,17,15.30
2011,08,15,08,18,15.30
2011,08,15,08,19,15.30
2011,08,15,08,20,15.30
2011,08,15,08,21,15.30
2011,08,15,08,22,15.30
2011,08,15,08,23,15.30
2011,08,15,08,24,15.30
2011,08,15,08,25,15.30
2011,08,15,08,26,15.30
2011,08,15,08,27,15.40
2011,08,15,08,28,15.40
2011,08,15,08,29,15.40
2011,08,15,08,30,15.50
2011,08,15,08,31,15.60
2011,08,15,08,32,15.60
2011,08,15,08,33,15.70
2011,08,15,08,34,15.70
2011,08,15,08,35,15.70
2011,08,15,08,36,15.80
2011,08,15,08,37,15.80
2011,08,15,08,38,15.80
2011,08,15,08,39,15.80
2011,08,15,08,40,15.90
2011,08,15,08,41,15.90
2011,08,15,08,42,15.90
2011,08,15,08,43,15.90
2011,08,15,08,44,15.90
2011,08,15,08,45,15.90
2011,08,15,08,46,15.90
2011,08,15,08,47,15.80
2011,08,15,08,48,15.90
2011,08,15,08,49,15.90
2011,08,15,08,50,15.90
2011,08,15,08,51,15.90
2011,08,15,08,52,15.90
2011,08,15,08,53,15.80
2011,08,15,08,54,15.80
2011,08,15,08,55,15.80
2011,08,15,08,56,15.80
2011,08,15,08,57,15.80
2011,08,15,08,58,15.80
2011,08,15,08,59,15.80
2011,08,15,09,00,15.80
2011,08,15,09,01,15.80
2011,08,15,09,02,15.80
2011,08,15,09,03,15.80
2011,08,15,09,04,15.80
2011,08,15,09,05,15.80
2011,08,15,09,06,15.90
2011,08,15,09,07,15.90
2011,08,15,09,08,16.00
2011,08,15,09,09,16.00
2011,08,15,09,10,16.10
2011,08,15,09,11,16.10
2011,08,15,09,12,16.10
2011,08,15,09,13,16.00
2011,08,15,09,14,16.00
2011,08,15,09,15,16.00
2011,08,15,09,16,16.00
2011,08,15,09,17,16.00
2011,08,15,09,18,16.00
2011,08,15,09,19,16.00
2011,08,15,09,20,16.10
2011,08,15,09,21,16.10
2011,08,15,09,22,16.10
2011,08,15,09,23,16.10
2011,08,15,09,24,16.10
2011,08,15,09,25,16.10
2011,08,15,09,26,16.00
2011,08,15,09,27,16.00
2011,08,15,09,28,16.00
2011,08,15,09,29,16.00
2011,08,15,09,30,16.00
2011,08,15,09,31,16.10
2011,08,15,09,32,16.00
2011,08,15,09,33,16.00
2011,08,15,09,34,16.00
2011,08,15,09,35,16.00
2011,08,15,09,36,16.00
2011,08,15,09,37,15.90
2011,08,15,09,38,15.90
2011,08,15,09,39,16.00
2011,08,15,09,40,16.00
2011,08,15,09,41,16.10
2011,08,15,09,42,16.20
2011,08,15,09,43,16.20
2011,08,15,09,44,16.30
2011,08,15,09,45,16.30
2011,08,15,09,46,16.30
2011,08,15,09,47,16.30
2011,08,15,09,48,16.30
2011,08,15,09,49,16.30
2011,08,15,09,50,16.30
2011,08,15,09,51,16.30
2011,08,15,09,52,16.30
2011,08,15,09,53,16.40
2011,08,15,09,54,16.50
2011,08,15,09,55,16.50
2011,08,15,09,56,16.60
2011,08,15,09,57,16.60
2011,08,15,09,58,16.60
2011,08,15,09,59,16.60
2011,08,15,10,00,16.60
2011,08,15,10,01,16.60
2011,08,15,10,02,16.70
2011,08,15,10,03,16.70
2011,08,15,10,04,16.70
2011,08,15,10,05,16.60
2011,08,15,10,06,16.60
2011,08,15,10,07,16.50
2011,08,15,10,08,16.50
2011,08,15,10,09,16.50
2011,08,15,10,10,16.50
2011,08,15,10,11,16.50
2011,08,15,10,12,16.40
2011,08,15,10,13,16.40
2011,08,15,10,14,16.40
2011,08,15,10,15,16.40
2011,08,15,10,16,16.40
2011,08,15,10,17,16.50
2011,08,15,10,18,16.60
2011,08,15,10,19,16.70
2011,08,15,10,20,16.60
2011,08,15,10,21,16.70
2011,08,15,10,22,16.70
2011,08,15,10,23,16.60
2011,08,15,10,24,16.50
2011,08,15,10,25,16.50
2011,08,15,10,26,16.40
2011,08,15,10,27,16.40
2011,08,15,10,28,16.50
2011,08,15,10,29,16.50
2011,08,15,10,30,16.50
2011,08,15,10,31,16.60
2011,08,15,10,32,16.50
2011,08,15,10,33,16.50
2011,08,15,10,34,16.40
2011,08,15,10,35,16.40
2011,08,15,10,36,16.40
2011,08,15,10,37,16.40
2011,08,15,10,38,16.40
2011,08,15,10,39,16.40
2011,08,15,10,40,16.40
2011,08,15,10,41,16.30
2011,08,15,10,42,16.30
2011,08,15,10,43,16.40
2011,08,15,10,44,16.40
2011,08,15,10,45,16.50
2011,08,15,10,46,16.50
2011,08,15,10,47,16.50
2011,08,15,10,48,16.40
2011,08,15,10,49,16.40
2011,08,15,10,50,16.40
2011,08,15,10,51,16.30
2011,08,15,10,52,16.30
2011,08,15,10,53,16.30
2011,08,15,10,54,16.30
2011,08,15,10,55,16.30
2011,08,15,10,56,16.30
2011,08,15,10,57,16.20
2011,08,15,10,58,16.20
2011,08,15,10,59,16.20
2011,08,15,11,00,16.20
2011,08,15,11,01,16.20
2011,08,15,11,02,16.30
2011,08,15,11,03,16.30
2011,08,15,11,04,16.30
2011,08,15,11,05,16.30
2011,08,15,11,06,16.30
2011,08,15,11,07,16.30
2011,08,15,11,08,16.30
2011,08,15,11,09,16.40
2011,08,15,11,10,16.50
2011,08,15,11,11,16.50
2011,08,15,11,12,16.50
2011,08,15,11,13,16.60
2011,08,15,11,14,16.70
2011,08,15,11,15,16.70
2011,08,15,11,16,16.70
2011,08,15,11,17,16.60
2011,08,15,11,18,16.60
2011,08,15,11,19,16.60
2011,08,15,11,20,16.50
2011,08,15,11,21,16.50
2011,08,15,11,22,16.40
2011,08,15,11,23,16.50
2011,08,15,11,24,16.60
2011,08,15,11,25,16.60
2011,08,15,11,26,16.60
2011,08,15,11,27,16.60
2011,08,15,11,28,16.60
2011,08,15,11,29,16.60
2011,08,15,11,30,16.60
2011,08,15,11,31,16.60
2011,08,15,11,32,16.60
2011,08,15,11,33,16.50
2011,08,15,11,34,16.50
2011,08,15,11,35,16.60
2011,08,15,11,36,16.60
2011,08,15,11,37,16.70
2011,08,15,11,38,16.80
2011,08,15,11,39,16.80
2011,08,15,11,40,16.90
2011,08,15,11,41,16.90
2011,08,15,11,42,16.90
2011,08,15,11,43,16.90
2011,08,15,11,44,16.90
2011,08,15,11,45,16.90
2011,08,15,11,46,16.90
2011,08,15,11,47,16.90
2011,08,15,11,48,16.90
2011,08,15,11,49,16.90
2011,08,15,11,50,16.80
2011,08,15,11,51,16.80
2011,08,15,11,52,16.80
2011,08,15,11,53,16.70
2011,08,15,11,54,16.70
2011,08,15,11,55,16.70
2011,08,15,11,56,16.60
2011,08,15,11,57,16.70
2011,08,15,11,58,16.70
2011,08,15,11,59,16.80
2011,08,15,12,00,16.80
2011,08,15,12,01,16.80
2011,08,15,12,02,16.80
2011,08,15,12,03,16.90
2011,08,15,12,04,16.90
2011,08,15,12,05,16.90
2011,08,15,12,06,17.00
2011,08,15,12,07,17.10
2011,08,15,12,08,17.10
2011,08,15,12,09,17.20
2011,08,15,12,10,17.20
2011,08,15,12,11,17.20
2011,08,15,12,12,17.20
2011,08,15,12,13,17.20
2011,08,15,12,14,17.30
2011,08,15,12,15,17.20
2011,08,15,12,16,17.10
2011,08,15,12,17,17.10
2011,08,15,12,18,17.10
2011,08,15,12,19,17.10
2011,08,15,12,20,17.10
2011,08,15,12,21,17.20
2011,08,15,12,22,17.30
2011,08,15,12,23,17.30
2011,08,15,12,24,17.40
2011,08,15,12,25,17.50
2011,08,15,12,26,17.50
2011,08,15,12,27,17.40
2011,08,15,12,28,17.30
2011,08,15,12,29,17.20
2011,08,15,12,30,17.10
2011,08,15,12,31,17.00
2011,08,15,12,32,17.00
2011,08,15,12,33,16.90
2011,08,15,12,34,17.00
2011,08,15,12,35,17.00
2011,08,15,12,36,17.10
2011,08,15,12,37,17.20
2011,08,15,12,38,17.20
2011,08,15,12,39,17.20
2011,08,15,12,40,17.30
2011,08,15,12,41,17.30
2011,08,15,12,42,17.40
2011,08,15,12,43,17.50
2011,08,15,12,44,17.40
2011,08,15,12,45,17.30
2011,08,15,12,46,17.30
2011,08,15,12,47,17.20
2011,08,15,12,48,17.20
2011,08,15,12,49,17.20
2011,08,15,12,50,17.20
2011,08,15,12,51,17.20
2011,08,15,12,52,17.30
2011,08,15,12,53,17.30
2011,08,15,12,54,17.30
2011,08,15,12,55,17.30
2011,08,15,12,56,17.30
2011,08,15,12,57,17.30
2011,08,15,12,58,17.30
2011,08,15,12,59,17.30
2011,08,15,13,00,17.40
2011,08,15,13,01,17.50
2011,08,15,13,02,17.50
2011,08,15,13,03,17.60
2011,08,15,13,04,17.60
2011,08,15,13,05,17.60
2011,08,15,13,06,17.60
2011,08,15,13,07,17.60
2011,08,15,13,08,17.60
2011,08,15,13,09,17.60
2011,08,15,13,10,17.60
2011,08,15,13,11,17.70
2011,08,15,13,12,17.70
2011,08,15,13,13,17.70
2011,08,15,13,14,17.70
2011,08,15,13,15,17.70
2011,08,15,13,16,17.70
2011,08,15,13,17,17.70
2011,08,15,13,18,17.70
2011,08,15,13,19,17.60
2011,08,15,13,20,17.60
2011,08,15,13,21,17.60
2011,08,15,13,22,17.70
2011,08,15,13,23,17.70
2011,08,15,13,24,17.70
2011,08,15,13,25,17.60
2011,08,15,13,26,17.60
2011,08,15,13,27,17.70
2011,08,15,13,28,17.70
2011,08,15,13,29,17.70
2011,08,15,13,30,17.70
2011,08,15,13,31,17.70
2011,08,15,13,32,17.70
2011,08,15,13,33,17.70
2011,08,15,13,34,17.70
2011,08,15,13,35,17.70
2011,08,15,13,36,17.80
2011,08,15,13,37,17.80
2011,08,15,13,38,17.80
2011,08,15,13,39,17.80
2011,08,15,13,40,17.80
2011,08,15,13,41,17.70
2011,08,15,13,42,17.70
2011,08,15,13,43,17.70
2011,08,15,13,44,17.70
2011,08,15,13,45,17.80
2011,08,15,13,46,17.80
2011,08,15,13,47,17.80
2011,08,15,13,48,17.80
2011,08,15,13,49,17.80
2011,08,15,13,50,17.80
2011,08,15,13,51,17.80
2011,08,15,13,52,17.80
2011,08,15,13,53,17.90
2011,08,15,13,54,17.90
2011,08,15,13,55,17.90
2011,08,15,13,56,17.90
2011,08,15,13,57,17.90
2011,08,15,13,58,17.90
2011,08,15,13,59,18.00
2011,08,15,14,00,18.00
2011,08,15,14,01,18.00
2011,08,15,14,02,18.00
2011,08,15,14,03,18.00
2011,08,15,14,04,18.00
2011,08,15,14,05,18.10
2011,08,15,14,06,18.00
2011,08,15,14,07,18.00
2011,08,15,14,08,18.00
2011,08,15,14,09,18.00
2011,08,15,14,10,18.10
2011,08,15,14,11,18.20
2011,08,15,14,12,18.30
2011,08,15,14,13,18.30
2011,08,15,14,14,18.30
2011,08,15,14,15,18.20
2011,08,15,14,16,18.20
2011,08,15,14,17,18.20
2011,08,15,14,18,18.30
2011,08,15,14,19,18.30
2011,08,15,14,20,18.30
2011,08,15,14,21,18.30
2011,08,15,14,22,18.40
2011,08,15,14,23,18.50
2011,08,15,14,24,18.50
2011,08,15,14,25,18.50
2011,08,15,14,26,18.40
2011,08,15,14,27,18.40
2011,08,15,14,28,18.40
2011,08,15,14,29,18.40
2011,08,15,14,30,18.40
2011,08,15,14,31,18.40
2011,08,15,14,32,18.40
2011,08,15,14,33,18.40
2011,08,15,14,34,18.40
2011,08,15,14,35,18.40
2011,08,15,14,36,18.40
2011,08,15,14,37,18.40
2011,08,15,14,38,18.40
2011,08,15,14,39,18.50
2011,08,15,14,40,18.60
2011,08,15,14,41,18.60
2011,08,15,14,42,18.70
2011,08,15,14,43,18.70
2011,08,15,14,44,18.70
2011,08,15,14,45,18.70
2011,08,15,14,46,18.70
2011,08,15,14,47,18.70
2011,08,15,14,48,18.70
2011,08,15,14,49,18.70
2011,08,15,14,50,18.70
2011,08,15,14,51,18.70
2011,08,15,14,52,18.70
2011,08,15,14,53,18.70
2011,08,15,14,54,18.70
2011,08,15,14,55,18.70
2011,08,15,14,56,18.80
2011,08,15,14,57,18.80
2011,08,15,14,58,18.90
2011,08,15,14,59,18.90
2011,08,15,15,00,19.00
2011,08,15,15,01,19.00
2011,08,15,15,02,19.10
2011,08,15,15,03,19.20
2011,08,15,15,04,19.20
2011,08,15,15,05,19.30
2011,08,15,15,06,19.30
2011,08,15,15,07,19.30
2011,08,15,15,08,19.40
2011,08,15,15,09,19.40
2011,08,15,15,10,19.40
2011,08,15,15,11,19.40
2011,08,15,15,12,19.40
2011,08,15,15,13,19.50
2011,08,15,15,14,19.40
2011,08,15,15,15,19.40
2011,08,15,15,16,19.30
2011,08,15,15,17,19.30
2011,08,15,15,18,19.20
2011,08,15,15,19,19.20
2011,08,15,15,20,19.30
2011,08,15,15,21,19.30
2011,08,15,15,22,19.20
2011,08,15,15,23,19.20
2011,08,15,15,24,19.20
2011,08,15,15,25,19.20
2011,08,15,15,26,19.20
2011,08,15,15,27,19.20
2011,08,15,15,28,19.10
2011,08,15,15,29,19.10
2011,08,15,15,30,19.20
2011,08,15,15,31,19.30
2011,08,15,15,32,19.30
2011,08,15,15,33,19.30
2011,08,15,15,34,19.30
2011,08,15,15,35,19.20
2011,08,15,15,36,19.10
2011,08,15,15,37,19.10
2011,08,15,15,38,19.20
2011,08,15,15,39,19.20
2011,08,15,15,40,19.20
2011,08,15,15,41,19.20
2011,08,15,15,42,19.20
2011,08,15,15,43,19.20
2011,08,15,15,44,19.20
2011,08,15,15,45,19.30
2011,08,15,15,46,19.30
2011,08,15,15,47,19.50
2011,08,15,15,48,19.70
2011,08,15,15,49,19.80
2011,08,15,15,50,19.90
2011,08,15,15,51,20.00
2011,08,15,15,52,20.00
2011,08,15,15,53,20.00
2011,08,15,15,54,20.00
2011,08,15,15,55,20.00
2011,08,15,15,56,20.00
2011,08,15,15,57,20.00
2011,08,15,15,58,20.00
2011,08,15,15,59,20.00
2011,08,15,16,00,19.90
2011,08,15,16,01,19.90
2011,08,15,16,02,19.90
2011,08,15,16,03,19.90
2011,08,15,16,04,19.90
2011,08,15,16,05,19.90
2011,08,15,16,06,19.90
2011,08,15,16,07,19.90
2011,08,15,16,08,19.80
2011,08,15,16,09,19.80
2011,08,15,16,10,19.70
2011,08,15,16,11,19.60
2011,08,15,16,12,19.60
2011,08,15,16,13,19.60
2011,08,15,16,14,19.60
2011,08,15,16,15,19.60
2011,08,15,16,16,19.70
2011,08,15,16,17,19.80
2011,08,15,16,18,19.90
2011,08,15,16,19,19.90
2011,08,15,16,20,20.00
2011,08,15,16,21,20.00
2011,08,15,16,22,20.00
2011,08,15,16,23,20.00
2011,08,15,16,24,20.00
2011,08,15,16,25,20.00
2011,08,15,16,26,20.10
2011,08,15,16,27,20.20
2011,08,15,16,28,20.10
2011,08,15,16,29,20.10
2011,08,15,16,30,20.10
2011,08,15,16,31,20.10
2011,08,15,16,32,20.00
2011,08,15,16,33,19.90
2011,08,15,16,34,19.90
2011,08,15,16,35,19.90
2011,08,15,16,36,20.00
2011,08,15,16,37,20.00
2011,08,15,16,38,19.90
2011,08,15,16,39,19.90
2011,08,15,16,40,19.90
2011,08,15,16,41,19.90
2011,08,15,16,42,19.80
2011,08,15,16,43,19.80
2011,08,15,16,44,19.80
2011,08,15,16,45,19.90
2011,08,15,16,46,19.80
2011,08,15,16,47,19.80
2011,08,15,16,48,19.80
2011,08,15,16,49,19.80
2011,08,15,16,50,19.90
2011,08,15,16,51,19.90
2011,08,15,16,52,19.90
2011,08,15,16,53,20.00
2011,08,15,16,54,19.90
2011,08,15,16,55,19.90
2011,08,15,16,56,19.80
2011,08,15,16,57,19.80
2011,08,15,16,58,19.80
2011,08,15,16,59,19.70
2011,08,15,17,00,19.70
2011,08,15,17,01,19.70
2011,08,15,17,02,19.70
2011,08,15,17,03,19.70
2011,08,15,17,04,19.60
2011,08,15,17,05,19.60
2011,08,15,17,06,19.60
2011,08,15,17,07,19.60
2011,08,15,17,08,19.50
2011,08,15,17,09,19.40
2011,08,15,17,10,19.40
2011,08,15,17,11,19.40
2011,08,15,17,12,19.40
2011,08,15,17,13,19.40
2011,08,15,17,14,19.40
2011,08,15,17,15,19.40
2011,08,15,17,16,19.40
2011,08,15,17,17,19.40
2011,08,15,17,18,19.30
2011,08,15,17,19,19.30